Volver al catálogo

KUIPER-00091

ActivoComunicacionesLEO
NORAD 64836·PAYLOAD·🇺🇸 United States

Lanzado Jul 16, 2025 desde Cape Canaveral Space Force Station

Loading…

Próximos Pases (próximas 24 horas)

TLE

ActualizadoSource: CelesTrak SupGP

Época: Sep 14, 2026, 15:57 UTC

1 64836C 25151W   26257.66523148  .00004669  00000+0  61118-3 0  2579
2 64836  51.9000 167.4691 0001052  87.8418 120.6958 14.79922195    13

Sigue KUIPER-00091 en tiempo real con AllMySat

Download on the App Store